Index of /20260505/WXO-DD/model_caps/3km/12/017
Name Last modified Size Description
Parent Directory -
20260505T12Z_MSC_CAPS_AbsoluteVorticity_IsbL-0250_RLatLon0.03_PT017H.grib2 2026-05-05 18:13 1.1M
20260505T12Z_MSC_CAPS_AbsoluteVorticity_IsbL-0500_RLatLon0.03_PT017H.grib2 2026-05-05 18:13 1.1M
20260505T12Z_MSC_CAPS_AbsoluteVorticity_IsbL-0700_RLatLon0.03_PT017H.grib2 2026-05-05 18:13 1.3M
20260505T12Z_MSC_CAPS_AbsoluteVorticity_IsbL-0850_RLatLon0.03_PT017H.grib2 2026-05-05 18:13 1.3M
20260505T12Z_MSC_CAPS_AbsoluteVorticity_IsbL-1000_RLatLon0.03_PT017H.grib2 2026-05-05 18:13 1.4M
20260505T12Z_MSC_CAPS_AirDensity_AGL-120m_RLatLon0.03_PT017H.grib2 2026-05-05 18:13 1.4M
20260505T12Z_MSC_CAPS_AirDensity_AGL-40m_RLatLon0.03_PT017H.grib2 2026-05-05 18:13 1.4M
20260505T12Z_MSC_CAPS_AirDensity_AGL-80m_RLatLon0.03_PT017H.grib2 2026-05-05 18:13 1.4M
20260505T12Z_MSC_CAPS_AirTemp_AGL-120m_RLatLon0.03_PT017H.grib2 2026-05-05 18:13 1.8M
20260505T12Z_MSC_CAPS_AirTemp_AGL-2m_RLatLon0.03_PT017H.grib2 2026-05-05 18:13 1.7M
20260505T12Z_MSC_CAPS_AirTemp_AGL-40m_RLatLon0.03_PT017H.grib2 2026-05-05 18:13 1.5M
20260505T12Z_MSC_CAPS_AirTemp_AGL-80m_RLatLon0.03_PT017H.grib2 2026-05-05 18:13 1.8M
20260505T12Z_MSC_CAPS_AirTemp_IsbL-0050_RLatLon0.03_PT017H.grib2 2026-05-05 18:13 692K
20260505T12Z_MSC_CAPS_AirTemp_IsbL-0100_RLatLon0.03_PT017H.grib2 2026-05-05 18:13 956K
20260505T12Z_MSC_CAPS_AirTemp_IsbL-0150_RLatLon0.03_PT017H.grib2 2026-05-05 18:13 751K
20260505T12Z_MSC_CAPS_AirTemp_IsbL-0175_RLatLon0.03_PT017H.grib2 2026-05-05 18:13 779K
20260505T12Z_MSC_CAPS_AirTemp_IsbL-0200_RLatLon0.03_PT017H.grib2 2026-05-05 18:13 802K
20260505T12Z_MSC_CAPS_AirTemp_IsbL-0225_RLatLon0.03_PT017H.grib2 2026-05-05 18:13 799K
20260505T12Z_MSC_CAPS_AirTemp_IsbL-0250_RLatLon0.03_PT017H.grib2 2026-05-05 18:13 1.0M
20260505T12Z_MSC_CAPS_AirTemp_IsbL-0275_RLatLon0.03_PT017H.grib2 2026-05-05 18:13 1.0M
20260505T12Z_MSC_CAPS_AirTemp_IsbL-0300_RLatLon0.03_PT017H.grib2 2026-05-05 18:13 1.0M
20260505T12Z_MSC_CAPS_AirTemp_IsbL-0350_RLatLon0.03_PT017H.grib2 2026-05-05 18:13 759K
20260505T12Z_MSC_CAPS_AirTemp_IsbL-0400_RLatLon0.03_PT017H.grib2 2026-05-05 18:13 767K
20260505T12Z_MSC_CAPS_AirTemp_IsbL-0450_RLatLon0.03_PT017H.grib2 2026-05-05 18:13 781K
20260505T12Z_MSC_CAPS_AirTemp_IsbL-0500_RLatLon0.03_PT017H.grib2 2026-05-05 18:13 796K
20260505T12Z_MSC_CAPS_AirTemp_IsbL-0550_RLatLon0.03_PT017H.grib2 2026-05-05 18:13 806K
20260505T12Z_MSC_CAPS_AirTemp_IsbL-0600_RLatLon0.03_PT017H.grib2 2026-05-05 18:13 826K
20260505T12Z_MSC_CAPS_AirTemp_IsbL-0650_RLatLon0.03_PT017H.grib2 2026-05-05 18:13 856K
20260505T12Z_MSC_CAPS_AirTemp_IsbL-0700_RLatLon0.03_PT017H.grib2 2026-05-05 18:13 1.0M
20260505T12Z_MSC_CAPS_AirTemp_IsbL-0750_RLatLon0.03_PT017H.grib2 2026-05-05 18:13 1.0M
20260505T12Z_MSC_CAPS_AirTemp_IsbL-0800_RLatLon0.03_PT017H.grib2 2026-05-05 18:13 1.0M
20260505T12Z_MSC_CAPS_AirTemp_IsbL-0850_RLatLon0.03_PT017H.grib2 2026-05-05 18:13 1.0M
20260505T12Z_MSC_CAPS_AirTemp_IsbL-0875_RLatLon0.03_PT017H.grib2 2026-05-05 18:13 1.0M
20260505T12Z_MSC_CAPS_AirTemp_IsbL-0900_RLatLon0.03_PT017H.grib2 2026-05-05 18:13 1.0M
20260505T12Z_MSC_CAPS_AirTemp_IsbL-0925_RLatLon0.03_PT017H.grib2 2026-05-05 18:13 1.1M
20260505T12Z_MSC_CAPS_AirTemp_IsbL-0950_RLatLon0.03_PT017H.grib2 2026-05-05 18:13 1.0M
20260505T12Z_MSC_CAPS_AirTemp_IsbL-0970_RLatLon0.03_PT017H.grib2 2026-05-05 18:13 1.1M
20260505T12Z_MSC_CAPS_AirTemp_IsbL-0985_RLatLon0.03_PT017H.grib2 2026-05-05 18:13 1.1M
20260505T12Z_MSC_CAPS_AirTemp_IsbL-1000_RLatLon0.03_PT017H.grib2 2026-05-05 18:13 1.0M
20260505T12Z_MSC_CAPS_AirTemp_IsbL-1015_RLatLon0.03_PT017H.grib2 2026-05-05 18:13 1.1M
20260505T12Z_MSC_CAPS_Albedo_Sfc_RLatLon0.03_PT017H.grib2 2026-05-05 18:13 2.7M
20260505T12Z_MSC_CAPS_CAPE_Sfc_RLatLon0.03_PT017H.grib2 2026-05-05 18:13 228K
20260505T12Z_MSC_CAPS_CloudWater_EAtm_RLatLon0.03_PT017H.grib2 2026-05-05 18:13 1.5M
20260505T12Z_MSC_CAPS_ConvectivePrecip-Accum_Sfc_RLatLon0.03_PT017H.grib2 2026-05-05 18:13 3.1M
20260505T12Z_MSC_CAPS_DewPointDepression_AGL-120m_RLatLon0.03_PT017H.grib2 2026-05-05 18:13 2.1M
20260505T12Z_MSC_CAPS_DewPointDepression_AGL-2m_RLatLon0.03_PT017H.grib2 2026-05-05 18:13 2.2M
20260505T12Z_MSC_CAPS_DewPointDepression_AGL-40m_RLatLon0.03_PT017H.grib2 2026-05-05 18:13 2.2M
20260505T12Z_MSC_CAPS_DewPointDepression_AGL-80m_RLatLon0.03_PT017H.grib2 2026-05-05 18:13 2.2M
20260505T12Z_MSC_CAPS_DewPointDepression_IsbL-0050_RLatLon0.03_PT017H.grib2 2026-05-05 18:13 2.4K
20260505T12Z_MSC_CAPS_DewPointDepression_IsbL-0100_RLatLon0.03_PT017H.grib2 2026-05-05 18:13 50K
20260505T12Z_MSC_CAPS_DewPointDepression_IsbL-0150_RLatLon0.03_PT017H.grib2 2026-05-05 18:13 59K
20260505T12Z_MSC_CAPS_DewPointDepression_IsbL-0175_RLatLon0.03_PT017H.grib2 2026-05-05 18:13 213K
20260505T12Z_MSC_CAPS_DewPointDepression_IsbL-0200_RLatLon0.03_PT017H.grib2 2026-05-05 18:13 396K
20260505T12Z_MSC_CAPS_DewPointDepression_IsbL-0225_RLatLon0.03_PT017H.grib2 2026-05-05 18:13 607K
20260505T12Z_MSC_CAPS_DewPointDepression_IsbL-0250_RLatLon0.03_PT017H.grib2 2026-05-05 18:13 847K
20260505T12Z_MSC_CAPS_DewPointDepression_IsbL-0275_RLatLon0.03_PT017H.grib2 2026-05-05 18:13 1.0M
20260505T12Z_MSC_CAPS_DewPointDepression_IsbL-0300_RLatLon0.03_PT017H.grib2 2026-05-05 18:13 1.0M
20260505T12Z_MSC_CAPS_DewPointDepression_IsbL-0350_RLatLon0.03_PT017H.grib2 2026-05-05 18:13 1.1M
20260505T12Z_MSC_CAPS_DewPointDepression_IsbL-0400_RLatLon0.03_PT017H.grib2 2026-05-05 18:13 1.1M
20260505T12Z_MSC_CAPS_DewPointDepression_IsbL-0450_RLatLon0.03_PT017H.grib2 2026-05-05 18:13 1.2M
20260505T12Z_MSC_CAPS_DewPointDepression_IsbL-0500_RLatLon0.03_PT017H.grib2 2026-05-05 18:13 1.2M
20260505T12Z_MSC_CAPS_DewPointDepression_IsbL-0550_RLatLon0.03_PT017H.grib2 2026-05-05 18:13 1.2M
20260505T12Z_MSC_CAPS_DewPointDepression_IsbL-0600_RLatLon0.03_PT017H.grib2 2026-05-05 18:13 1.2M
20260505T12Z_MSC_CAPS_DewPointDepression_IsbL-0650_RLatLon0.03_PT017H.grib2 2026-05-05 18:13 1.3M
20260505T12Z_MSC_CAPS_DewPointDepression_IsbL-0700_RLatLon0.03_PT017H.grib2 2026-05-05 18:13 1.3M
20260505T12Z_MSC_CAPS_DewPointDepression_IsbL-0750_RLatLon0.03_PT017H.grib2 2026-05-05 18:13 1.3M
20260505T12Z_MSC_CAPS_DewPointDepression_IsbL-0800_RLatLon0.03_PT017H.grib2 2026-05-05 18:13 1.3M
20260505T12Z_MSC_CAPS_DewPointDepression_IsbL-0850_RLatLon0.03_PT017H.grib2 2026-05-05 18:13 1.3M
20260505T12Z_MSC_CAPS_DewPointDepression_IsbL-0875_RLatLon0.03_PT017H.grib2 2026-05-05 18:13 1.3M
20260505T12Z_MSC_CAPS_DewPointDepression_IsbL-0900_RLatLon0.03_PT017H.grib2 2026-05-05 18:13 1.3M
20260505T12Z_MSC_CAPS_DewPointDepression_IsbL-0925_RLatLon0.03_PT017H.grib2 2026-05-05 18:13 1.4M
20260505T12Z_MSC_CAPS_DewPointDepression_IsbL-0950_RLatLon0.03_PT017H.grib2 2026-05-05 18:13 1.4M
20260505T12Z_MSC_CAPS_DewPointDepression_IsbL-0970_RLatLon0.03_PT017H.grib2 2026-05-05 18:13 1.4M
20260505T12Z_MSC_CAPS_DewPointDepression_IsbL-0985_RLatLon0.03_PT017H.grib2 2026-05-05 18:13 1.4M
20260505T12Z_MSC_CAPS_DewPointDepression_IsbL-1000_RLatLon0.03_PT017H.grib2 2026-05-05 18:13 1.4M
20260505T12Z_MSC_CAPS_DewPointDepression_IsbL-1015_RLatLon0.03_PT017H.grib2 2026-05-05 18:13 1.4M
20260505T12Z_MSC_CAPS_DewPoint_AGL-120m_RLatLon0.03_PT017H.grib2 2026-05-05 18:13 3.7M
20260505T12Z_MSC_CAPS_DewPoint_AGL-2m_RLatLon0.03_PT017H.grib2 2026-05-05 18:13 1.8M
20260505T12Z_MSC_CAPS_DewPoint_AGL-40m_RLatLon0.03_PT017H.grib2 2026-05-05 18:13 3.7M
20260505T12Z_MSC_CAPS_DewPoint_AGL-80m_RLatLon0.03_PT017H.grib2 2026-05-05 18:13 3.7M
20260505T12Z_MSC_CAPS_DownwardLongwaveRadiationFlux-Accum_Sfc_RLatLon0.03_PT017H.grib2 2026-05-05 18:13 2.6M
20260505T12Z_MSC_CAPS_DownwardShortwaveRadiationFlux-Accum_NTAtm_RLatLon0.03_PT017H.grib2 2026-05-05 18:13 466K
20260505T12Z_MSC_CAPS_DownwardShortwaveRadiationFlux-Accum_Sfc_RLatLon0.03_PT017H.grib2 2026-05-05 18:13 3.0M
20260505T12Z_MSC_CAPS_FreezingRain-Accum_Sfc_RLatLon0.03_PT017H.grib2 2026-05-05 18:13 632K
20260505T12Z_MSC_CAPS_GeopotentialHeight_IsbL-0050_RLatLon0.03_PT017H.grib2 2026-05-05 18:13 824K
20260505T12Z_MSC_CAPS_GeopotentialHeight_IsbL-0100_RLatLon0.03_PT017H.grib2 2026-05-05 18:13 748K
20260505T12Z_MSC_CAPS_GeopotentialHeight_IsbL-0150_RLatLon0.03_PT017H.grib2 2026-05-05 18:13 600K
20260505T12Z_MSC_CAPS_GeopotentialHeight_IsbL-0175_RLatLon0.03_PT017H.grib2 2026-05-05 18:13 715K
20260505T12Z_MSC_CAPS_GeopotentialHeight_IsbL-0200_RLatLon0.03_PT017H.grib2 2026-05-05 18:13 736K
20260505T12Z_MSC_CAPS_GeopotentialHeight_IsbL-0225_RLatLon0.03_PT017H.grib2 2026-05-05 18:13 758K
20260505T12Z_MSC_CAPS_GeopotentialHeight_IsbL-0250_RLatLon0.03_PT017H.grib2 2026-05-05 18:13 770K
20260505T12Z_MSC_CAPS_GeopotentialHeight_IsbL-0275_RLatLon0.03_PT017H.grib2 2026-05-05 18:13 779K
20260505T12Z_MSC_CAPS_GeopotentialHeight_IsbL-0300_RLatLon0.03_PT017H.grib2 2026-05-05 18:13 784K
20260505T12Z_MSC_CAPS_GeopotentialHeight_IsbL-0350_RLatLon0.03_PT017H.grib2 2026-05-05 18:13 784K
20260505T12Z_MSC_CAPS_GeopotentialHeight_IsbL-0400_RLatLon0.03_PT017H.grib2 2026-05-05 18:13 780K
20260505T12Z_MSC_CAPS_GeopotentialHeight_IsbL-0450_RLatLon0.03_PT017H.grib2 2026-05-05 18:13 772K
20260505T12Z_MSC_CAPS_GeopotentialHeight_IsbL-0500_RLatLon0.03_PT017H.grib2 2026-05-05 18:13 763K
20260505T12Z_MSC_CAPS_GeopotentialHeight_IsbL-0550_RLatLon0.03_PT017H.grib2 2026-05-05 18:13 642K
20260505T12Z_MSC_CAPS_GeopotentialHeight_IsbL-0600_RLatLon0.03_PT017H.grib2 2026-05-05 18:13 637K
20260505T12Z_MSC_CAPS_GeopotentialHeight_IsbL-0650_RLatLon0.03_PT017H.grib2 2026-05-05 18:13 811K
20260505T12Z_MSC_CAPS_GeopotentialHeight_IsbL-0700_RLatLon0.03_PT017H.grib2 2026-05-05 18:13 813K
20260505T12Z_MSC_CAPS_GeopotentialHeight_IsbL-0750_RLatLon0.03_PT017H.grib2 2026-05-05 18:13 816K
20260505T12Z_MSC_CAPS_GeopotentialHeight_IsbL-0800_RLatLon0.03_PT017H.grib2 2026-05-05 18:13 825K
20260505T12Z_MSC_CAPS_GeopotentialHeight_IsbL-0850_RLatLon0.03_PT017H.grib2 2026-05-05 18:13 835K
20260505T12Z_MSC_CAPS_GeopotentialHeight_IsbL-0875_RLatLon0.03_PT017H.grib2 2026-05-05 18:13 840K
20260505T12Z_MSC_CAPS_GeopotentialHeight_IsbL-0900_RLatLon0.03_PT017H.grib2 2026-05-05 18:13 849K
20260505T12Z_MSC_CAPS_GeopotentialHeight_IsbL-0925_RLatLon0.03_PT017H.grib2 2026-05-05 18:13 666K
20260505T12Z_MSC_CAPS_GeopotentialHeight_IsbL-0950_RLatLon0.03_PT017H.grib2 2026-05-05 18:13 673K
20260505T12Z_MSC_CAPS_GeopotentialHeight_IsbL-0970_RLatLon0.03_PT017H.grib2 2026-05-05 18:13 678K
20260505T12Z_MSC_CAPS_GeopotentialHeight_IsbL-0985_RLatLon0.03_PT017H.grib2 2026-05-05 18:13 684K
20260505T12Z_MSC_CAPS_GeopotentialHeight_IsbL-1000_RLatLon0.03_PT017H.grib2 2026-05-05 18:13 691K
20260505T12Z_MSC_CAPS_GeopotentialHeight_IsbL-1015_RLatLon0.03_PT017H.grib2 2026-05-05 18:13 700K
20260505T12Z_MSC_CAPS_GeopotentialHeight_Sfc_RLatLon0.03_PT017H.grib2 2026-05-05 18:13 1.0M
20260505T12Z_MSC_CAPS_IcePellets-Accum_Sfc_RLatLon0.03_PT017H.grib2 2026-05-05 18:13 92K
20260505T12Z_MSC_CAPS_LatentHeatNetFlux_Sfc_RLatLon0.03_PT017H.grib2 2026-05-05 18:13 1.9M
20260505T12Z_MSC_CAPS_LiftedIndex-MU-VT_IsbL-0500_RLatLon0.03_PT017H.grib2 2026-05-05 18:13 3.3M
20260505T12Z_MSC_CAPS_MixedLayerThickness_Sfc_RLatLon0.03_PT017H.nc 2026-05-05 18:13 16M
20260505T12Z_MSC_CAPS_NetLongwaveRadiationFlux-Accum_Sfc_RLatLon0.03_PT017H.grib2 2026-05-05 18:13 2.9M
20260505T12Z_MSC_CAPS_NetShortwaveRadiationFlux-Accum_Sfc_RLatLon0.03_PT017H.grib2 2026-05-05 18:13 3.0M
20260505T12Z_MSC_CAPS_PlanetaryBoundaryLayerHeight_Sfc_RLatLon0.03_PT017H.grib2 2026-05-05 18:13 3.0M
20260505T12Z_MSC_CAPS_Precip-Accum_Sfc_RLatLon0.03_PT017H.grib2 2026-05-05 18:13 4.4M
20260505T12Z_MSC_CAPS_PrecipRate_Sfc_RLatLon0.03_PT017H.grib2 2026-05-05 18:13 596K
20260505T12Z_MSC_CAPS_PrecipType-Instant_Sfc_RLatLon0.03_PT017H.grib2 2026-05-05 18:13 1.9M
20260505T12Z_MSC_CAPS_Pressure_MSL_RLatLon0.03_PT017H.grib2 2026-05-05 18:13 926K
20260505T12Z_MSC_CAPS_Pressure_Sfc_RLatLon0.03_PT017H.grib2 2026-05-05 18:13 1.2M
20260505T12Z_MSC_CAPS_RadiativeTemp_Sfc_RLatLon0.03_PT017H.grib2 2026-05-05 18:13 2.1M
20260505T12Z_MSC_CAPS_Rain-Accum_Sfc_RLatLon0.03_PT017H.grib2 2026-05-05 18:13 2.2M
20260505T12Z_MSC_CAPS_RelativeHumidity_AGL-120m_RLatLon0.03_PT017H.grib2 2026-05-05 18:13 2.8M
20260505T12Z_MSC_CAPS_RelativeHumidity_AGL-2m_RLatLon0.03_PT017H.grib2 2026-05-05 18:13 3.0M
20260505T12Z_MSC_CAPS_RelativeHumidity_AGL-40m_RLatLon0.03_PT017H.grib2 2026-05-05 18:13 2.9M
20260505T12Z_MSC_CAPS_RelativeHumidity_AGL-80m_RLatLon0.03_PT017H.grib2 2026-05-05 18:13 2.8M
20260505T12Z_MSC_CAPS_RelativeHumidity_IsbL-0050_RLatLon0.03_PT017H.grib2 2026-05-05 18:13 966K
20260505T12Z_MSC_CAPS_RelativeHumidity_IsbL-0100_RLatLon0.03_PT017H.grib2 2026-05-05 18:13 857K
20260505T12Z_MSC_CAPS_RelativeHumidity_IsbL-0150_RLatLon0.03_PT017H.grib2 2026-05-05 18:13 531K
20260505T12Z_MSC_CAPS_RelativeHumidity_IsbL-0175_RLatLon0.03_PT017H.grib2 2026-05-05 18:13 613K
20260505T12Z_MSC_CAPS_RelativeHumidity_IsbL-0200_RLatLon0.03_PT017H.grib2 2026-05-05 18:13 654K
20260505T12Z_MSC_CAPS_RelativeHumidity_IsbL-0225_RLatLon0.03_PT017H.grib2 2026-05-05 18:13 883K
20260505T12Z_MSC_CAPS_RelativeHumidity_IsbL-0250_RLatLon0.03_PT017H.grib2 2026-05-05 18:13 1.1M
20260505T12Z_MSC_CAPS_RelativeHumidity_IsbL-0275_RLatLon0.03_PT017H.grib2 2026-05-05 18:13 1.4M
20260505T12Z_MSC_CAPS_RelativeHumidity_IsbL-0300_RLatLon0.03_PT017H.grib2 2026-05-05 18:13 1.5M
20260505T12Z_MSC_CAPS_RelativeHumidity_IsbL-0350_RLatLon0.03_PT017H.grib2 2026-05-05 18:13 1.8M
20260505T12Z_MSC_CAPS_RelativeHumidity_IsbL-0400_RLatLon0.03_PT017H.grib2 2026-05-05 18:13 1.9M
20260505T12Z_MSC_CAPS_RelativeHumidity_IsbL-0450_RLatLon0.03_PT017H.grib2 2026-05-05 18:13 2.0M
20260505T12Z_MSC_CAPS_RelativeHumidity_IsbL-0500_RLatLon0.03_PT017H.grib2 2026-05-05 18:13 2.0M
20260505T12Z_MSC_CAPS_RelativeHumidity_IsbL-0550_RLatLon0.03_PT017H.grib2 2026-05-05 18:13 2.1M
20260505T12Z_MSC_CAPS_RelativeHumidity_IsbL-0600_RLatLon0.03_PT017H.grib2 2026-05-05 18:13 2.1M
20260505T12Z_MSC_CAPS_RelativeHumidity_IsbL-0650_RLatLon0.03_PT017H.grib2 2026-05-05 18:13 2.3M
20260505T12Z_MSC_CAPS_RelativeHumidity_IsbL-0700_RLatLon0.03_PT017H.grib2 2026-05-05 18:13 2.3M
20260505T12Z_MSC_CAPS_RelativeHumidity_IsbL-0750_RLatLon0.03_PT017H.grib2 2026-05-05 18:13 2.4M
20260505T12Z_MSC_CAPS_RelativeHumidity_IsbL-0800_RLatLon0.03_PT017H.grib2 2026-05-05 18:13 2.5M
20260505T12Z_MSC_CAPS_RelativeHumidity_IsbL-0850_RLatLon0.03_PT017H.grib2 2026-05-05 18:13 2.6M
20260505T12Z_MSC_CAPS_RelativeHumidity_IsbL-0875_RLatLon0.03_PT017H.grib2 2026-05-05 18:13 2.6M
20260505T12Z_MSC_CAPS_RelativeHumidity_IsbL-0900_RLatLon0.03_PT017H.grib2 2026-05-05 18:13 2.6M
20260505T12Z_MSC_CAPS_RelativeHumidity_IsbL-0925_RLatLon0.03_PT017H.grib2 2026-05-05 18:13 2.7M
20260505T12Z_MSC_CAPS_RelativeHumidity_IsbL-0950_RLatLon0.03_PT017H.grib2 2026-05-05 18:13 2.8M
20260505T12Z_MSC_CAPS_RelativeHumidity_IsbL-0970_RLatLon0.03_PT017H.grib2 2026-05-05 18:13 2.9M
20260505T12Z_MSC_CAPS_RelativeHumidity_IsbL-0985_RLatLon0.03_PT017H.grib2 2026-05-05 18:13 2.9M
20260505T12Z_MSC_CAPS_RelativeHumidity_IsbL-1000_RLatLon0.03_PT017H.grib2 2026-05-05 18:13 2.9M
20260505T12Z_MSC_CAPS_RelativeHumidity_IsbL-1015_RLatLon0.03_PT017H.grib2 2026-05-05 18:13 2.9M
20260505T12Z_MSC_CAPS_Runoff-Accum_Sfc_RLatLon0.03_PT017H.grib2 2026-05-05 18:13 309K
20260505T12Z_MSC_CAPS_SeaIceAreaFraction_Sfc_RLatLon0.03_PT017H.nc 2026-05-05 18:13 15M
20260505T12Z_MSC_CAPS_SeaIceCompressiveStrength_Sfc_RLatLon0.03_PT017H.nc 2026-05-05 18:13 15M
20260505T12Z_MSC_CAPS_SeaIceDivergence_Sfc_RLatLon0.03_PT017H.nc 2026-05-05 18:13 15M
20260505T12Z_MSC_CAPS_SeaIceInternalPressure_Sfc_RLatLon0.03_PT017H.nc 2026-05-05 18:13 15M
20260505T12Z_MSC_CAPS_SeaIceShear_Sfc_RLatLon0.03_PT017H.nc 2026-05-05 18:13 15M
20260505T12Z_MSC_CAPS_SeaIceSnowTemp_Sfc_RLatLon0.03_PT017H.nc 2026-05-05 18:13 14M
20260505T12Z_MSC_CAPS_SeaIceSnowVolume_Sfc_RLatLon0.03_PT017H.nc 2026-05-05 18:13 15M
20260505T12Z_MSC_CAPS_SeaIceVelocityX_Sfc_RLatLon0.03_PT017H.nc 2026-05-05 18:13 15M
20260505T12Z_MSC_CAPS_SeaIceVelocityY_Sfc_RLatLon0.03_PT017H.nc 2026-05-05 18:13 15M
20260505T12Z_MSC_CAPS_SeaIceVolume_Sfc_RLatLon0.03_PT017H.nc 2026-05-05 18:13 15M
20260505T12Z_MSC_CAPS_SeaSurfaceHeight_Sfc_RLatLon0.03_PT017H.nc 2026-05-05 18:13 16M
20260505T12Z_MSC_CAPS_SeaWaterSalinity_DBS-0.5m_RLatLon0.03_PT017H.nc 2026-05-05 18:13 16M
20260505T12Z_MSC_CAPS_SeaWaterSalinity_DBS-all_RLatLon0.03_PT017H.nc 2026-05-05 18:13 107M
20260505T12Z_MSC_CAPS_SeaWaterTemp_DBS-0.5m_RLatLon0.03_PT017H.nc 2026-05-05 18:13 15M
20260505T12Z_MSC_CAPS_SeaWaterTemp_DBS-all_RLatLon0.03_PT017H.nc 2026-05-05 18:13 88M
20260505T12Z_MSC_CAPS_SeaWaterVelocityX_DBS-0.5m_RLatLon0.03_PT017H.nc 2026-05-05 18:13 18M
20260505T12Z_MSC_CAPS_SeaWaterVelocityX_DBS-all_RLatLon0.03_PT017H.nc 2026-05-05 18:13 211M
20260505T12Z_MSC_CAPS_SeaWaterVelocityY_DBS-0.5m_RLatLon0.03_PT017H.nc 2026-05-05 18:13 18M
20260505T12Z_MSC_CAPS_SeaWaterVelocityY_DBS-all_RLatLon0.03_PT017H.nc 2026-05-05 18:13 217M
20260505T12Z_MSC_CAPS_SensibleHeatNetFlux_Sfc_RLatLon0.03_PT017H.grib2 2026-05-05 18:13 2.1M
20260505T12Z_MSC_CAPS_ShowalterIndex_IsbL-0500_RLatLon0.03_PT017H.grib2 2026-05-05 18:13 3.8M
20260505T12Z_MSC_CAPS_Snow-Accum_Sfc_RLatLon0.03_PT017H.grib2 2026-05-05 18:13 3.4M
20260505T12Z_MSC_CAPS_SnowDensity_Sfc_RLatLon0.03_PT017H.grib2 2026-05-05 18:13 1.2M
20260505T12Z_MSC_CAPS_SnowDepthWaterEquivalent_Sfc_RLatLon0.03_PT017H.grib2 2026-05-05 18:13 654K
20260505T12Z_MSC_CAPS_SnowDepth_Sfc_RLatLon0.03_PT017H.grib2 2026-05-05 18:13 1.1M
20260505T12Z_MSC_CAPS_SoilTemp_DBS-0to10cm_RLatLon0.03_PT017H.grib2 2026-05-05 18:13 1.5M
20260505T12Z_MSC_CAPS_SoilTemp_Sfc_RLatLon0.03_PT017H.grib2 2026-05-05 18:13 1.8M
20260505T12Z_MSC_CAPS_SoilVolumetricIceContent_Sfc_RLatLon0.03_PT017H.grib2 2026-05-05 18:13 1.4M
20260505T12Z_MSC_CAPS_SoilVolumetricWaterContent_DBS-0to10cm_RLatLon0.03_PT017H.grib2 2026-05-05 18:13 1.3M
20260505T12Z_MSC_CAPS_SoilVolumetricWaterContent_DBS-0to1cm_RLatLon0.03_PT017H.grib2 2026-05-05 18:13 1.7M
20260505T12Z_MSC_CAPS_SpecificHumidity_AGL-120m_RLatLon0.03_PT017H.grib2 2026-05-05 18:13 1.8M
20260505T12Z_MSC_CAPS_SpecificHumidity_AGL-2m_RLatLon0.03_PT017H.grib2 2026-05-05 18:13 2.1M
20260505T12Z_MSC_CAPS_SpecificHumidity_AGL-40m_RLatLon0.03_PT017H.grib2 2026-05-05 18:13 1.9M
20260505T12Z_MSC_CAPS_SpecificHumidity_AGL-80m_RLatLon0.03_PT017H.grib2 2026-05-05 18:13 1.8M
20260505T12Z_MSC_CAPS_SpecificHumidity_IsbL-0050_RLatLon0.03_PT017H.grib2 2026-05-05 18:13 902K
20260505T12Z_MSC_CAPS_SpecificHumidity_IsbL-0100_RLatLon0.03_PT017H.grib2 2026-05-05 18:13 1.0M
20260505T12Z_MSC_CAPS_SpecificHumidity_IsbL-0150_RLatLon0.03_PT017H.grib2 2026-05-05 18:13 1.0M
20260505T12Z_MSC_CAPS_SpecificHumidity_IsbL-0175_RLatLon0.03_PT017H.grib2 2026-05-05 18:13 1.0M
20260505T12Z_MSC_CAPS_SpecificHumidity_IsbL-0200_RLatLon0.03_PT017H.grib2 2026-05-05 18:13 881K
20260505T12Z_MSC_CAPS_SpecificHumidity_IsbL-0225_RLatLon0.03_PT017H.grib2 2026-05-05 18:13 1.1M
20260505T12Z_MSC_CAPS_SpecificHumidity_IsbL-0250_RLatLon0.03_PT017H.grib2 2026-05-05 18:13 1.1M
20260505T12Z_MSC_CAPS_SpecificHumidity_IsbL-0275_RLatLon0.03_PT017H.grib2 2026-05-05 18:13 1.1M
20260505T12Z_MSC_CAPS_SpecificHumidity_IsbL-0300_RLatLon0.03_PT017H.grib2 2026-05-05 18:13 1.0M
20260505T12Z_MSC_CAPS_SpecificHumidity_IsbL-0350_RLatLon0.03_PT017H.grib2 2026-05-05 18:13 1.2M
20260505T12Z_MSC_CAPS_SpecificHumidity_IsbL-0400_RLatLon0.03_PT017H.grib2 2026-05-05 18:13 1.2M
20260505T12Z_MSC_CAPS_SpecificHumidity_IsbL-0450_RLatLon0.03_PT017H.grib2 2026-05-05 18:13 1.1M
20260505T12Z_MSC_CAPS_SpecificHumidity_IsbL-0500_RLatLon0.03_PT017H.grib2 2026-05-05 18:13 1.3M
20260505T12Z_MSC_CAPS_SpecificHumidity_IsbL-0550_RLatLon0.03_PT017H.grib2 2026-05-05 18:13 1.2M
20260505T12Z_MSC_CAPS_SpecificHumidity_IsbL-0600_RLatLon0.03_PT017H.grib2 2026-05-05 18:13 1.4M
20260505T12Z_MSC_CAPS_SpecificHumidity_IsbL-0650_RLatLon0.03_PT017H.grib2 2026-05-05 18:13 1.5M
20260505T12Z_MSC_CAPS_SpecificHumidity_IsbL-0700_RLatLon0.03_PT017H.grib2 2026-05-05 18:13 1.3M
20260505T12Z_MSC_CAPS_SpecificHumidity_IsbL-0750_RLatLon0.03_PT017H.grib2 2026-05-05 18:13 1.4M
20260505T12Z_MSC_CAPS_SpecificHumidity_IsbL-0800_RLatLon0.03_PT017H.grib2 2026-05-05 18:13 1.6M
20260505T12Z_MSC_CAPS_SpecificHumidity_IsbL-0850_RLatLon0.03_PT017H.grib2 2026-05-05 18:13 1.7M
20260505T12Z_MSC_CAPS_SpecificHumidity_IsbL-0875_RLatLon0.03_PT017H.grib2 2026-05-05 18:13 1.8M
20260505T12Z_MSC_CAPS_SpecificHumidity_IsbL-0900_RLatLon0.03_PT017H.grib2 2026-05-05 18:13 1.9M
20260505T12Z_MSC_CAPS_SpecificHumidity_IsbL-0925_RLatLon0.03_PT017H.grib2 2026-05-05 18:13 1.9M
20260505T12Z_MSC_CAPS_SpecificHumidity_IsbL-0950_RLatLon0.03_PT017H.grib2 2026-05-05 18:13 2.0M
20260505T12Z_MSC_CAPS_SpecificHumidity_IsbL-0970_RLatLon0.03_PT017H.grib2 2026-05-05 18:13 2.0M
20260505T12Z_MSC_CAPS_SpecificHumidity_IsbL-0985_RLatLon0.03_PT017H.grib2 2026-05-05 18:13 2.1M
20260505T12Z_MSC_CAPS_SpecificHumidity_IsbL-1000_RLatLon0.03_PT017H.grib2 2026-05-05 18:13 2.1M
20260505T12Z_MSC_CAPS_SpecificHumidity_IsbL-1015_RLatLon0.03_PT017H.grib2 2026-05-05 18:13 2.1M
20260505T12Z_MSC_CAPS_SpecificHumidity_Sfc_RLatLon0.03_PT017H.grib2 2026-05-05 18:13 2.0M
20260505T12Z_MSC_CAPS_StormRelativeHelicity_Sfc_RLatLon0.03_PT017H.grib2 2026-05-05 18:13 3.3M
20260505T12Z_MSC_CAPS_Thickness_IsbL-1000to0500_RLatLon0.03_PT017H.grib2 2026-05-05 18:13 472K
20260505T12Z_MSC_CAPS_TotalCloudCover_Sfc_RLatLon0.03_PT017H.grib2 2026-05-05 18:13 3.5M
20260505T12Z_MSC_CAPS_TurboclineDepth_Sfc_RLatLon0.03_PT017H.nc 2026-05-05 18:13 16M
20260505T12Z_MSC_CAPS_UpwardLongwaveRadiationFlux_NTAtm_RLatLon0.03_PT017H.grib2 2026-05-05 18:13 2.9M
20260505T12Z_MSC_CAPS_UpwardShortwaveRadiationFlux_NTAtm_RLatLon0.03_PT017H.grib2 2026-05-05 18:13 1.8M
20260505T12Z_MSC_CAPS_VerticalVelocity_IsbL-0250_RLatLon0.03_PT017H.grib2 2026-05-05 18:13 1.2M
20260505T12Z_MSC_CAPS_VerticalVelocity_IsbL-0500_RLatLon0.03_PT017H.grib2 2026-05-05 18:13 1.1M
20260505T12Z_MSC_CAPS_VerticalVelocity_IsbL-0700_RLatLon0.03_PT017H.grib2 2026-05-05 18:13 1.3M
20260505T12Z_MSC_CAPS_VerticalVelocity_IsbL-0850_RLatLon0.03_PT017H.grib2 2026-05-05 18:13 1.2M
20260505T12Z_MSC_CAPS_VerticalVelocity_IsbL-1000_RLatLon0.03_PT017H.grib2 2026-05-05 18:13 1.5M
20260505T12Z_MSC_CAPS_WindDir_AGL-10m_RLatLon0.03_PT017H.grib2 2026-05-05 18:13 2.4M
20260505T12Z_MSC_CAPS_WindDir_AGL-120m_RLatLon0.03_PT017H.grib2 2026-05-05 18:13 1.2M
20260505T12Z_MSC_CAPS_WindDir_AGL-40m_RLatLon0.03_PT017H.grib2 2026-05-05 18:13 1.3M
20260505T12Z_MSC_CAPS_WindDir_AGL-80m_RLatLon0.03_PT017H.grib2 2026-05-05 18:13 1.2M
20260505T12Z_MSC_CAPS_WindDir_IsbL-0050_RLatLon0.03_PT017H.grib2 2026-05-05 18:13 1.0M
20260505T12Z_MSC_CAPS_WindDir_IsbL-0100_RLatLon0.03_PT017H.grib2 2026-05-05 18:13 1.0M
20260505T12Z_MSC_CAPS_WindDir_IsbL-0150_RLatLon0.03_PT017H.grib2 2026-05-05 18:13 1.0M
20260505T12Z_MSC_CAPS_WindDir_IsbL-0175_RLatLon0.03_PT017H.grib2 2026-05-05 18:13 1.0M
20260505T12Z_MSC_CAPS_WindDir_IsbL-0200_RLatLon0.03_PT017H.grib2 2026-05-05 18:13 1.1M
20260505T12Z_MSC_CAPS_WindDir_IsbL-0225_RLatLon0.03_PT017H.grib2 2026-05-05 18:13 1.1M
20260505T12Z_MSC_CAPS_WindDir_IsbL-0250_RLatLon0.03_PT017H.grib2 2026-05-05 18:13 1.1M
20260505T12Z_MSC_CAPS_WindDir_IsbL-0275_RLatLon0.03_PT017H.grib2 2026-05-05 18:13 1.1M
20260505T12Z_MSC_CAPS_WindDir_IsbL-0300_RLatLon0.03_PT017H.grib2 2026-05-05 18:13 1.1M
20260505T12Z_MSC_CAPS_WindDir_IsbL-0350_RLatLon0.03_PT017H.grib2 2026-05-05 18:13 1.1M
20260505T12Z_MSC_CAPS_WindDir_IsbL-0400_RLatLon0.03_PT017H.grib2 2026-05-05 18:13 1.2M
20260505T12Z_MSC_CAPS_WindDir_IsbL-0450_RLatLon0.03_PT017H.grib2 2026-05-05 18:13 1.2M
20260505T12Z_MSC_CAPS_WindDir_IsbL-0500_RLatLon0.03_PT017H.grib2 2026-05-05 18:13 1.3M
20260505T12Z_MSC_CAPS_WindDir_IsbL-0550_RLatLon0.03_PT017H.grib2 2026-05-05 18:13 1.3M
20260505T12Z_MSC_CAPS_WindDir_IsbL-0600_RLatLon0.03_PT017H.grib2 2026-05-05 18:13 1.3M
20260505T12Z_MSC_CAPS_WindDir_IsbL-0650_RLatLon0.03_PT017H.grib2 2026-05-05 18:13 1.4M
20260505T12Z_MSC_CAPS_WindDir_IsbL-0700_RLatLon0.03_PT017H.grib2 2026-05-05 18:13 1.5M
20260505T12Z_MSC_CAPS_WindDir_IsbL-0750_RLatLon0.03_PT017H.grib2 2026-05-05 18:13 1.6M
20260505T12Z_MSC_CAPS_WindDir_IsbL-0800_RLatLon0.03_PT017H.grib2 2026-05-05 18:13 1.7M
20260505T12Z_MSC_CAPS_WindDir_IsbL-0850_RLatLon0.03_PT017H.grib2 2026-05-05 18:13 1.8M
20260505T12Z_MSC_CAPS_WindDir_IsbL-0875_RLatLon0.03_PT017H.grib2 2026-05-05 18:13 1.8M
20260505T12Z_MSC_CAPS_WindDir_IsbL-0900_RLatLon0.03_PT017H.grib2 2026-05-05 18:13 1.9M
20260505T12Z_MSC_CAPS_WindDir_IsbL-0925_RLatLon0.03_PT017H.grib2 2026-05-05 18:13 2.0M
20260505T12Z_MSC_CAPS_WindDir_IsbL-0950_RLatLon0.03_PT017H.grib2 2026-05-05 18:13 2.0M
20260505T12Z_MSC_CAPS_WindDir_IsbL-0970_RLatLon0.03_PT017H.grib2 2026-05-05 18:13 2.1M
20260505T12Z_MSC_CAPS_WindDir_IsbL-0985_RLatLon0.03_PT017H.grib2 2026-05-05 18:13 2.1M
20260505T12Z_MSC_CAPS_WindDir_IsbL-1000_RLatLon0.03_PT017H.grib2 2026-05-05 18:13 2.2M
20260505T12Z_MSC_CAPS_WindDir_IsbL-1015_RLatLon0.03_PT017H.grib2 2026-05-05 18:13 2.3M
20260505T12Z_MSC_CAPS_WindGust-Max_AGL-10m_RLatLon0.03_PT017H.grib2 2026-05-05 18:13 2.5M
20260505T12Z_MSC_CAPS_WindGust-Min_AGL-10m_RLatLon0.03_PT017H.grib2 2026-05-05 18:13 2.5M
20260505T12Z_MSC_CAPS_WindGust_AGL-10m_RLatLon0.03_PT017H.grib2 2026-05-05 18:13 2.6M
20260505T12Z_MSC_CAPS_WindSpeed_AGL-10m_RLatLon0.03_PT017H.grib2 2026-05-05 18:13 2.2M
20260505T12Z_MSC_CAPS_WindSpeed_AGL-120m_RLatLon0.03_PT017H.grib2 2026-05-05 18:13 1.2M
20260505T12Z_MSC_CAPS_WindSpeed_AGL-40m_RLatLon0.03_PT017H.grib2 2026-05-05 18:13 1.2M
20260505T12Z_MSC_CAPS_WindSpeed_AGL-80m_RLatLon0.03_PT017H.grib2 2026-05-05 18:13 1.2M
20260505T12Z_MSC_CAPS_WindSpeed_IsbL-0050_RLatLon0.03_PT017H.grib2 2026-05-05 18:13 965K
20260505T12Z_MSC_CAPS_WindSpeed_IsbL-0100_RLatLon0.03_PT017H.grib2 2026-05-05 18:13 1.0M
20260505T12Z_MSC_CAPS_WindSpeed_IsbL-0150_RLatLon0.03_PT017H.grib2 2026-05-05 18:13 1.0M
20260505T12Z_MSC_CAPS_WindSpeed_IsbL-0175_RLatLon0.03_PT017H.grib2 2026-05-05 18:13 1.1M
20260505T12Z_MSC_CAPS_WindSpeed_IsbL-0200_RLatLon0.03_PT017H.grib2 2026-05-05 18:13 1.1M
20260505T12Z_MSC_CAPS_WindSpeed_IsbL-0225_RLatLon0.03_PT017H.grib2 2026-05-05 18:13 964K
20260505T12Z_MSC_CAPS_WindSpeed_IsbL-0250_RLatLon0.03_PT017H.grib2 2026-05-05 18:13 1.0M
20260505T12Z_MSC_CAPS_WindSpeed_IsbL-0275_RLatLon0.03_PT017H.grib2 2026-05-05 18:13 1.0M
20260505T12Z_MSC_CAPS_WindSpeed_IsbL-0300_RLatLon0.03_PT017H.grib2 2026-05-05 18:13 1.0M
20260505T12Z_MSC_CAPS_WindSpeed_IsbL-0350_RLatLon0.03_PT017H.grib2 2026-05-05 18:13 1.0M
20260505T12Z_MSC_CAPS_WindSpeed_IsbL-0400_RLatLon0.03_PT017H.grib2 2026-05-05 18:13 1.1M
20260505T12Z_MSC_CAPS_WindSpeed_IsbL-0450_RLatLon0.03_PT017H.grib2 2026-05-05 18:13 1.0M
20260505T12Z_MSC_CAPS_WindSpeed_IsbL-0500_RLatLon0.03_PT017H.grib2 2026-05-05 18:13 1.0M
20260505T12Z_MSC_CAPS_WindSpeed_IsbL-0550_RLatLon0.03_PT017H.grib2 2026-05-05 18:13 1.4M
20260505T12Z_MSC_CAPS_WindSpeed_IsbL-0600_RLatLon0.03_PT017H.grib2 2026-05-05 18:13 1.4M
20260505T12Z_MSC_CAPS_WindSpeed_IsbL-0650_RLatLon0.03_PT017H.grib2 2026-05-05 18:13 1.3M
20260505T12Z_MSC_CAPS_WindSpeed_IsbL-0700_RLatLon0.03_PT017H.grib2 2026-05-05 18:13 1.5M
20260505T12Z_MSC_CAPS_WindSpeed_IsbL-0750_RLatLon0.03_PT017H.grib2 2026-05-05 18:13 1.5M
20260505T12Z_MSC_CAPS_WindSpeed_IsbL-0800_RLatLon0.03_PT017H.grib2 2026-05-05 18:13 1.6M
20260505T12Z_MSC_CAPS_WindSpeed_IsbL-0850_RLatLon0.03_PT017H.grib2 2026-05-05 18:13 1.7M
20260505T12Z_MSC_CAPS_WindSpeed_IsbL-0875_RLatLon0.03_PT017H.grib2 2026-05-05 18:13 1.8M
20260505T12Z_MSC_CAPS_WindSpeed_IsbL-0900_RLatLon0.03_PT017H.grib2 2026-05-05 18:13 1.9M
20260505T12Z_MSC_CAPS_WindSpeed_IsbL-0925_RLatLon0.03_PT017H.grib2 2026-05-05 18:13 2.0M
20260505T12Z_MSC_CAPS_WindSpeed_IsbL-0950_RLatLon0.03_PT017H.grib2 2026-05-05 18:13 2.0M
20260505T12Z_MSC_CAPS_WindSpeed_IsbL-0970_RLatLon0.03_PT017H.grib2 2026-05-05 18:13 2.1M
20260505T12Z_MSC_CAPS_WindSpeed_IsbL-0985_RLatLon0.03_PT017H.grib2 2026-05-05 18:13 2.1M
20260505T12Z_MSC_CAPS_WindSpeed_IsbL-1000_RLatLon0.03_PT017H.grib2 2026-05-05 18:13 2.1M
20260505T12Z_MSC_CAPS_WindSpeed_IsbL-1015_RLatLon0.03_PT017H.grib2 2026-05-05 18:13 2.1M
20260505T12Z_MSC_CAPS_WindU_AGL-10m_RLatLon0.03_PT017H.grib2 2026-05-05 18:13 2.1M
20260505T12Z_MSC_CAPS_WindU_AGL-120m_RLatLon0.03_PT017H.grib2 2026-05-05 18:13 1.2M
20260505T12Z_MSC_CAPS_WindU_AGL-40m_RLatLon0.03_PT017H.grib2 2026-05-05 18:13 1.2M
20260505T12Z_MSC_CAPS_WindU_AGL-80m_RLatLon0.03_PT017H.grib2 2026-05-05 18:13 1.2M
20260505T12Z_MSC_CAPS_WindU_IsbL-0050_RLatLon0.03_PT017H.grib2 2026-05-05 18:13 722K
20260505T12Z_MSC_CAPS_WindU_IsbL-0100_RLatLon0.03_PT017H.grib2 2026-05-05 18:13 968K
20260505T12Z_MSC_CAPS_WindU_IsbL-0150_RLatLon0.03_PT017H.grib2 2026-05-05 18:13 928K
20260505T12Z_MSC_CAPS_WindU_IsbL-0175_RLatLon0.03_PT017H.grib2 2026-05-05 18:13 738K
20260505T12Z_MSC_CAPS_WindU_IsbL-0200_RLatLon0.03_PT017H.grib2 2026-05-05 18:13 760K
20260505T12Z_MSC_CAPS_WindU_IsbL-0225_RLatLon0.03_PT017H.grib2 2026-05-05 18:13 907K
20260505T12Z_MSC_CAPS_WindU_IsbL-0250_RLatLon0.03_PT017H.grib2 2026-05-05 18:13 923K
20260505T12Z_MSC_CAPS_WindU_IsbL-0275_RLatLon0.03_PT017H.grib2 2026-05-05 18:13 925K
20260505T12Z_MSC_CAPS_WindU_IsbL-0300_RLatLon0.03_PT017H.grib2 2026-05-05 18:13 934K
20260505T12Z_MSC_CAPS_WindU_IsbL-0350_RLatLon0.03_PT017H.grib2 2026-05-05 18:13 950K
20260505T12Z_MSC_CAPS_WindU_IsbL-0400_RLatLon0.03_PT017H.grib2 2026-05-05 18:13 960K
20260505T12Z_MSC_CAPS_WindU_IsbL-0450_RLatLon0.03_PT017H.grib2 2026-05-05 18:13 1.0M
20260505T12Z_MSC_CAPS_WindU_IsbL-0500_RLatLon0.03_PT017H.grib2 2026-05-05 18:13 1.0M
20260505T12Z_MSC_CAPS_WindU_IsbL-0550_RLatLon0.03_PT017H.grib2 2026-05-05 18:13 1.0M
20260505T12Z_MSC_CAPS_WindU_IsbL-0600_RLatLon0.03_PT017H.grib2 2026-05-05 18:13 948K
20260505T12Z_MSC_CAPS_WindU_IsbL-0650_RLatLon0.03_PT017H.grib2 2026-05-05 18:13 1.0M
20260505T12Z_MSC_CAPS_WindU_IsbL-0700_RLatLon0.03_PT017H.grib2 2026-05-05 18:13 1.0M
20260505T12Z_MSC_CAPS_WindU_IsbL-0750_RLatLon0.03_PT017H.grib2 2026-05-05 18:13 1.1M
20260505T12Z_MSC_CAPS_WindU_IsbL-0800_RLatLon0.03_PT017H.grib2 2026-05-05 18:13 1.2M
20260505T12Z_MSC_CAPS_WindU_IsbL-0850_RLatLon0.03_PT017H.grib2 2026-05-05 18:13 1.2M
20260505T12Z_MSC_CAPS_WindU_IsbL-0875_RLatLon0.03_PT017H.grib2 2026-05-05 18:13 1.3M
20260505T12Z_MSC_CAPS_WindU_IsbL-0900_RLatLon0.03_PT017H.grib2 2026-05-05 18:13 1.3M
20260505T12Z_MSC_CAPS_WindU_IsbL-0925_RLatLon0.03_PT017H.grib2 2026-05-05 18:13 1.3M
20260505T12Z_MSC_CAPS_WindU_IsbL-0950_RLatLon0.03_PT017H.grib2 2026-05-05 18:13 1.4M
20260505T12Z_MSC_CAPS_WindU_IsbL-0970_RLatLon0.03_PT017H.grib2 2026-05-05 18:13 1.4M
20260505T12Z_MSC_CAPS_WindU_IsbL-0985_RLatLon0.03_PT017H.grib2 2026-05-05 18:13 1.5M
20260505T12Z_MSC_CAPS_WindU_IsbL-1000_RLatLon0.03_PT017H.grib2 2026-05-05 18:13 1.9M
20260505T12Z_MSC_CAPS_WindU_IsbL-1015_RLatLon0.03_PT017H.grib2 2026-05-05 18:13 1.9M
20260505T12Z_MSC_CAPS_WindV_AGL-10m_RLatLon0.03_PT017H.grib2 2026-05-05 18:13 1.9M
20260505T12Z_MSC_CAPS_WindV_AGL-120m_RLatLon0.03_PT017H.grib2 2026-05-05 18:13 916K
20260505T12Z_MSC_CAPS_WindV_AGL-40m_RLatLon0.03_PT017H.grib2 2026-05-05 18:13 1.2M
20260505T12Z_MSC_CAPS_WindV_AGL-80m_RLatLon0.03_PT017H.grib2 2026-05-05 18:13 923K
20260505T12Z_MSC_CAPS_WindV_IsbL-0050_RLatLon0.03_PT017H.grib2 2026-05-05 18:13 771K
20260505T12Z_MSC_CAPS_WindV_IsbL-0100_RLatLon0.03_PT017H.grib2 2026-05-05 18:13 795K
20260505T12Z_MSC_CAPS_WindV_IsbL-0150_RLatLon0.03_PT017H.grib2 2026-05-05 18:13 918K
20260505T12Z_MSC_CAPS_WindV_IsbL-0175_RLatLon0.03_PT017H.grib2 2026-05-05 18:13 727K
20260505T12Z_MSC_CAPS_WindV_IsbL-0200_RLatLon0.03_PT017H.grib2 2026-05-05 18:13 876K
20260505T12Z_MSC_CAPS_WindV_IsbL-0225_RLatLon0.03_PT017H.grib2 2026-05-05 18:13 896K
20260505T12Z_MSC_CAPS_WindV_IsbL-0250_RLatLon0.03_PT017H.grib2 2026-05-05 18:13 703K
20260505T12Z_MSC_CAPS_WindV_IsbL-0275_RLatLon0.03_PT017H.grib2 2026-05-05 18:13 710K
20260505T12Z_MSC_CAPS_WindV_IsbL-0300_RLatLon0.03_PT017H.grib2 2026-05-05 18:13 717K
20260505T12Z_MSC_CAPS_WindV_IsbL-0350_RLatLon0.03_PT017H.grib2 2026-05-05 18:13 730K
20260505T12Z_MSC_CAPS_WindV_IsbL-0400_RLatLon0.03_PT017H.grib2 2026-05-05 18:13 735K
20260505T12Z_MSC_CAPS_WindV_IsbL-0450_RLatLon0.03_PT017H.grib2 2026-05-05 18:13 1.0M
20260505T12Z_MSC_CAPS_WindV_IsbL-0500_RLatLon0.03_PT017H.grib2 2026-05-05 18:13 1.0M
20260505T12Z_MSC_CAPS_WindV_IsbL-0550_RLatLon0.03_PT017H.grib2 2026-05-05 18:13 1.0M
20260505T12Z_MSC_CAPS_WindV_IsbL-0600_RLatLon0.03_PT017H.grib2 2026-05-05 18:13 1.0M
20260505T12Z_MSC_CAPS_WindV_IsbL-0650_RLatLon0.03_PT017H.grib2 2026-05-05 18:13 1.0M
20260505T12Z_MSC_CAPS_WindV_IsbL-0700_RLatLon0.03_PT017H.grib2 2026-05-05 18:13 1.0M
20260505T12Z_MSC_CAPS_WindV_IsbL-0750_RLatLon0.03_PT017H.grib2 2026-05-05 18:13 1.1M
20260505T12Z_MSC_CAPS_WindV_IsbL-0800_RLatLon0.03_PT017H.grib2 2026-05-05 18:13 1.2M
20260505T12Z_MSC_CAPS_WindV_IsbL-0850_RLatLon0.03_PT017H.grib2 2026-05-05 18:13 1.2M
20260505T12Z_MSC_CAPS_WindV_IsbL-0875_RLatLon0.03_PT017H.grib2 2026-05-05 18:13 1.3M
20260505T12Z_MSC_CAPS_WindV_IsbL-0900_RLatLon0.03_PT017H.grib2 2026-05-05 18:13 1.3M
20260505T12Z_MSC_CAPS_WindV_IsbL-0925_RLatLon0.03_PT017H.grib2 2026-05-05 18:13 1.4M
20260505T12Z_MSC_CAPS_WindV_IsbL-0950_RLatLon0.03_PT017H.grib2 2026-05-05 18:13 1.5M
20260505T12Z_MSC_CAPS_WindV_IsbL-0970_RLatLon0.03_PT017H.grib2 2026-05-05 18:13 1.5M
20260505T12Z_MSC_CAPS_WindV_IsbL-0985_RLatLon0.03_PT017H.grib2 2026-05-05 18:13 1.5M
20260505T12Z_MSC_CAPS_WindV_IsbL-1000_RLatLon0.03_PT017H.grib2 2026-05-05 18:13 1.5M
20260505T12Z_MSC_CAPS_WindV_IsbL-1015_RLatLon0.03_PT017H.grib2 2026-05-05 18:13 1.9M